St George Airport
PAPB : now visible

Airfield :











YOU CAN JOIN US ON...

 
LOGIN :

Register | Disclaimer

   EN    FR    IT 

 









Legend :    VFR   Marginal VFR   IFR   Intensive IFR   Very Intensive IFR
Visi :
Ceiling :
>= 8 km
>= 3000ft
5 to 8 km
1000 to 3000 ft
1500m to 5 km
500 to 1000 ft
800 to 1500m
200 to 500 ft
< 800m
< 200 ft
Symbols :   Thunderstorms  Fog  Heavy snow  Heavy precipitations  Wind > 20 kt






- Airport Elevation : 125 ft
- IATA code : PBV


PAPB - St George

CURRENT METAR :
  • 272253Z AUTO 04027G35KT 10SM BKN018 OVC029 07/05 A2932 RMK AO2 PK WND 04035/2248 RAB2154E03B31E38 SLP917 P0001 T00720050 TSNO

EXPIRED METARs :
  • 272153Z AUTO 05021G31KT 10SM FEW016 BKN020 OVC029 07/05 A2930 RMK AO2 PK WND 05035/2132 RAE14B26E49 SLP912 P0000 T00720050 TSNO
  • 272124Z AUTO 05024G32KT 10SM BKN016 OVC026 07/06 A2929 RMK AO2 PK WND 05034/2057 RAE14 P0000 T00720056 TSNO
  • 272053Z AUTO 05025G33KT 8SM -RA BKN012 BKN018 OVC038 07/06 A2927 RMK AO2 PK WND 05036/1956 SLP900 P0001 60008 T00670056 53006 TSNO

TAF N/A
PAZA FIR / North America



MET'MAP, your aeronautical weather chart ! - Copyright ORBIFLY December 2007 - Disclaimer

ORBIFLY MET'MAP TEAM :

Programming & Development : Alexandra Zaïnal
Concept & original design : Baudouin d'Aumeries
Assistance for programming : Marc-Olivier Méhu
Technical & hardware support : Manuel Goepfert

Contact : metmap@orbifly.com




SOURCES & CREDITS :

   NOAA       Earth
Advisory